Weather History for Stephenville, TX

Change the Weather History Date:

Saturday, November 17, 2012

  Actual Average Record
Temperature  
Mean Temperature 50 °F -  
Max Temperature 66 °F 63 °F 86 °F (1921)
Min Temperature 33 °F 40 °F 20 °F (1959)
Degree Days  
Heating Degree Days 16    
Moisture  
Dew Point 27 °F    
Average Humidity 48    
Maximum Humidity 81    
Minimum Humidity 19    
Precipitation  
Precipitation 0.00 in - - ()
Sea Level Pressure  
Sea Level Pressure 30.34 in    
Wind  
Wind Speed 2 mph (SSE)    
Max Wind Speed 10 mph    
Max Gust Speed -    
Visibility 10 miles    
Events      
Averages and records for this station are not official NWS values.
T = Trace of Precipitation, MM = Missing Value Source: NWS Daily Summary

Daily Weather History Graph

Daily Weather History Graph

Search for Another Location

Airport:

Trip Planner

Search our weather history database for the weather conditions in past years. The results will help you decide how hot, cold, wet, or windy it might be!

Date:

Astronomy

Nov. 17, 2012 Rise Set
Actual Time 7:04 AM CST 5:31 PM CST
Civil Twilight 6:37 AM CST 5:57 PM CST
Nautical Twilight 6:08 AM CST 6:27 PM CST
Astronomical Twilight 5:39 AM CST 6:56 PM CST
Moon 10:49 AM CST (11/17) 9:41 PM CST (11/17)
Length of Visible Light 11h 19m
Length of Day
10h 27m
Waxing Crescent, 20% of the Moon is Illuminated
Nov 17
Waxing Crescent
Nov 20
First Quarter
Nov 28
Full
Dec 6
Last Quarter
Dec 13
New

Hourly Weather History & Observations

Time (CST) Temp. Windchill Dew Point Humidity Pressure Visibility Wind Dir Wind Speed Gust Speed Precip Events Conditions
12:15 AM 44.6 °F - 28.4 °F 53% 30.37 in 10.0 mi Calm Calm - N/A   Clear
12:35 AM 44.6 °F - 28.4 °F 53% 30.37 in 10.0 mi Calm Calm - N/A   Clear
12:55 AM 44.6 °F - 28.4 °F 53% 30.37 in 10.0 mi Calm Calm - N/A   Clear
1:15 AM 44.6 °F - 28.4 °F 53% 30.36 in 10.0 mi Calm Calm - N/A   Clear
1:35 AM 42.8 °F - 28.4 °F 57% 30.36 in 10.0 mi Calm Calm - N/A   Clear
1:55 AM 42.8 °F - 30.2 °F 61% 30.36 in 10.0 mi Calm Calm - N/A   Clear
2:15 AM 42.8 °F - 30.2 °F 61% 30.36 in 10.0 mi Calm Calm - N/A   Clear
2:35 AM 39.2 °F - 30.2 °F 70% 30.36 in 10.0 mi Calm Calm - N/A   Clear
2:55 AM 37.4 °F - 30.2 °F 75% 30.36 in 10.0 mi Calm Calm - N/A   Clear
3:15 AM 37.4 °F - 30.2 °F 75% 30.36 in 10.0 mi Calm Calm - N/A   Clear
3:35 AM 37.4 °F - 30.2 °F 75% 30.36 in 10.0 mi Calm Calm - N/A   Clear
3:55 AM 37.4 °F - 30.2 °F 75% 30.36 in 10.0 mi Calm Calm - N/A   Clear
4:15 AM 35.6 °F - 28.4 °F 75% 30.36 in 10.0 mi Calm Calm - N/A   Clear
4:35 AM 35.6 °F - 28.4 °F 75% 30.36 in 10.0 mi Calm Calm - N/A   Clear
4:55 AM 35.6 °F - 28.4 °F 75% 30.36 in 10.0 mi Calm Calm - N/A   Clear
5:15 AM 33.8 °F - 28.4 °F 81% 30.36 in 10.0 mi Calm Calm - N/A   Clear
5:35 AM 33.8 °F - 28.4 °F 81% 30.36 in 10.0 mi Calm Calm - N/A   Clear
5:55 AM 33.8 °F - 28.4 °F 81% 30.36 in 10.0 mi Calm Calm - N/A   Clear
6:15 AM 35.6 °F - 30.2 °F 81% 30.36 in 10.0 mi Calm Calm - N/A   Clear
6:35 AM 33.8 °F - 28.4 °F 81% 30.37 in 10.0 mi Calm Calm - N/A   Clear
6:55 AM 33.8 °F - 28.4 °F 81% 30.37 in 10.0 mi Calm Calm - N/A   Clear
7:15 AM 33.8 °F - 28.4 °F 81% 30.37 in 10.0 mi Calm Calm - N/A   Clear
7:35 AM 33.8 °F - 28.4 °F 81% 30.39 in 10.0 mi Calm Calm - N/A   Clear
7:55 AM 35.6 °F - 30.2 °F 81% 30.40 in 10.0 mi Calm Calm - N/A   Clear
8:15 AM 41.0 °F - 32.0 °F 70% 30.40 in 10.0 mi Calm Calm - N/A   Clear
8:35 AM 44.6 °F - 30.2 °F 57% 30.41 in 10.0 mi Calm Calm - N/A   Clear
8:55 AM 46.4 °F - 28.4 °F 50% 30.41 in 10.0 mi Calm Calm - N/A   Clear
9:15 AM 50.0 °F - 26.6 °F 40% 30.41 in 10.0 mi South 4.6 mph - N/A   Clear
9:35 AM 51.8 °F - 26.6 °F 38% 30.41 in 10.0 mi South 5.8 mph - N/A   Clear
9:55 AM 53.6 °F - 28.4 °F 38% 30.41 in 10.0 mi South 6.9 mph - N/A   Clear
10:15 AM 53.6 °F - 28.4 °F 38% 30.41 in 10.0 mi SSE 6.9 mph - N/A   Clear
10:35 AM 55.4 °F - 28.4 °F 36% 30.41 in 10.0 mi SE 8.1 mph - N/A   Clear
11:55 AM 60.8 °F - 26.6 °F 27% 30.39 in 10.0 mi South 6.9 mph - N/A   Clear
12:15 PM 60.8 °F - 23.0 °F 23% 30.38 in 10.0 mi SSE 6.9 mph - N/A   Clear
12:35 PM 62.6 °F - 23.0 °F 22% 30.37 in 10.0 mi South 5.8 mph - N/A   Clear
12:55 PM 62.6 °F - 23.0 °F 22% 30.35 in 10.0 mi SSE 3.5 mph - N/A   Clear
1:15 PM 64.4 °F - 23.0 °F 21% 30.34 in 10.0 mi South 4.6 mph - N/A   Clear
1:35 PM 64.4 °F - 21.2 °F 19% 30.33 in 10.0 mi SSE 6.9 mph - N/A   Clear
1:55 PM 64.4 °F - 21.2 °F 19% 30.33 in 10.0 mi South 6.9 mph - N/A   Clear
2:15 PM 64.4 °F - 21.2 °F 19% 30.31 in 10.0 mi SE 10.4 mph - N/A   Clear
2:35 PM 64.4 °F - 21.2 °F 19% 30.30 in 10.0 mi SE 9.2 mph - N/A   Clear
2:55 PM 66.2 °F - 23.0 °F 19% 30.30 in 10.0 mi ESE 8.1 mph - N/A   Clear
3:15 PM 66.2 °F - 23.0 °F 19% 30.30 in 10.0 mi South 4.6 mph - N/A   Clear
3:35 PM 66.2 °F - 23.0 °F 19% 30.30 in 10.0 mi SE 6.9 mph - N/A   Clear
3:55 PM 64.4 °F - 21.2 °F 19% 30.29 in 10.0 mi SE 9.2 mph - N/A   Clear
4:15 PM 64.4 °F - 21.2 °F 19% 30.29 in 10.0 mi SE 6.9 mph - N/A   Clear
4:35 PM 64.4 °F - 21.2 °F 19% 30.29 in 10.0 mi SE 6.9 mph - N/A   Clear
4:55 PM 62.6 °F - 21.2 °F 20% 30.28 in 10.0 mi SE 9.2 mph - N/A   Clear
5:15 PM 62.6 °F - 23.0 °F 22% 30.29 in 10.0 mi SE 6.9 mph - N/A   Clear
5:35 PM 60.8 °F - 23.0 °F 23% 30.29 in 10.0 mi ESE 4.6 mph - N/A   Clear
5:55 PM 55.4 °F - 24.8 °F 31% 30.29 in 10.0 mi ESE 5.8 mph - N/A   Clear
6:15 PM 55.4 °F - 26.6 °F 33% 30.29 in 10.0 mi ESE 6.9 mph - N/A   Clear
6:35 PM 55.4 °F - 26.6 °F 33% 30.30 in 10.0 mi SE 6.9 mph - N/A   Clear
6:55 PM 53.6 °F - 26.6 °F 35% 30.30 in 10.0 mi SE 6.9 mph - N/A   Clear
7:15 PM 53.6 °F - 26.6 °F 35% 30.30 in 10.0 mi SE 4.6 mph - N/A   Clear
7:35 PM 51.8 °F - 28.4 °F 41% 30.30 in 10.0 mi SE 3.5 mph - N/A   Clear
7:55 PM 51.8 °F - 28.4 °F 41% 30.30 in 10.0 mi SE 3.5 mph - N/A   Clear
8:15 PM 51.8 °F - 28.4 °F 41% 30.30 in 10.0 mi SSE 3.5 mph - N/A   Clear
8:35 PM 50.0 °F - 28.4 °F 43% 30.31 in 10.0 mi SSE 4.6 mph - N/A   Clear
8:55 PM 50.0 °F - 30.2 °F 47% 30.30 in 10.0 mi SSE 3.5 mph - N/A   Clear
9:15 PM 50.0 °F - 30.2 °F 47% 30.31 in 10.0 mi South 3.5 mph - N/A   Clear
9:35 PM 48.2 °F - 30.2 °F 50% 30.31 in 10.0 mi SSE 4.6 mph - N/A   Clear
9:55 PM 48.2 °F - 30.2 °F 50% 30.30 in 10.0 mi South 4.6 mph - N/A   Clear
10:15 PM 48.2 °F - 30.2 °F 50% 30.30 in 10.0 mi South 3.5 mph - N/A   Clear
10:35 PM 48.2 °F - 30.2 °F 50% 30.30 in 10.0 mi South 3.5 mph - N/A   Clear
10:55 PM 48.2 °F - 30.2 °F 50% 30.30 in 10.0 mi South 3.5 mph - N/A   Clear
11:15 PM 46.4 °F 45.2 °F 30.2 °F 53% 30.29 in 10.0 mi South 3.5 mph - N/A   Clear
11:35 PM 46.4 °F 44.3 °F 30.2 °F 53% 30.29 in 10.0 mi South 4.6 mph - N/A   Clear
11:55 PM 46.4 °F 44.3 °F 30.2 °F 53% 30.29 in 10.0 mi South 4.6 mph - N/A   Clear